Retour au catalogue

GEESAT 4-05

ActifScienceLEO
NORAD 65123·PAYLOAD·🇨🇳 China

Lancé Aug 8, 2025 depuis Yellow Sea Launch Area

Loading…

Prochains Passages (prochaines 24 heures)

TLE

FraisSource: Space-Track

Époque: Sep 14, 2026, 21:40 UTC

1 65123U 25170E   26257.90315287  .00001213  00000-0  17762-3 0  9992
2 65123  49.9947  73.6804 0007538 304.9957  55.0273 14.82385332 60354

Suivez GEESAT 4-05 en temps réel avec AllMySat

Download on the App Store